Weather History for Camarillo, CA

Change the Weather History Date:

Sunday, October 14, 2012

  Actual Average Record
Temperature  
Mean Temperature 68 °F 63 °F  
Max Temperature 84 °F 74 °F 98 °F (1961)
Min Temperature 52 °F 53 °F 44 °F (1960)
Degree Days  
Heating Degree Days 0 3  
Month to date heating degree days 11 31  
Since 1 July heating degree days 46 63  
Cooling Degree Days 3 1  
Month to date cooling degree days 26 14  
Year to date cooling degree days 317 297  
Growing Degree Days 18 (Base 50)    
Moisture  
Dew Point 54 °F    
Average Humidity 62    
Maximum Humidity 89    
Minimum Humidity 34    
Precipitation  
Precipitation 0.00 in 0.02 in 0.51 in (2009)
Month to date precipitation T 0.19  
Year to date precipitation 5.72 11.41  
Since 1 July precipitation 0.04 0.43  
Sea Level Pressure  
Sea Level Pressure 30.02 in    
Wind  
Wind Speed 4 mph (SW)    
Max Wind Speed 14 mph    
Max Gust Speed 16 mph    
Visibility 10 miles    
Events      
T = Trace of Precipitation, MM = Missing Value Source: NWS Daily Summary

Daily Weather History Graph

Daily Weather History Graph

Search for Another Location

Airport:

Trip Planner

Search our weather history database for the weather conditions in past years. The results will help you decide how hot, cold, wet, or windy it might be!

Date:

Astronomy

Oct. 14, 2012 Rise Set
Actual Time 7:01 AM PDT 6:22 PM PDT
Civil Twilight 6:36 AM PDT 6:47 PM PDT
Nautical Twilight 6:06 AM PDT 7:16 PM PDT
Astronomical Twilight 5:37 AM PDT 7:45 PM PDT
Moon 6:06 AM PDT (10/14) 5:46 PM PDT (10/14)
Length of Visible Light 12h 11m
Length of Day
11h 21m
Waning Crescent, 1% of the Moon is Illuminated
Oct 14
Waning Crescent
Oct 15
New
Oct 21
First Quarter
Oct 29
Full
Nov 6
Last Quarter

Hourly Weather History & Observations

Time (PDT) Temp. Heat Index Dew Point Humidity Pressure Visibility Wind Dir Wind Speed Gust Speed Precip Events Conditions
12:55 AM 59.0 °F - 53.1 °F 81% 30.07 in 10.0 mi East 3.5 mph - N/A   Clear
1:55 AM 59.0 °F - 52.0 °F 78% 30.08 in 10.0 mi Calm Calm - N/A   Clear
2:55 AM 55.9 °F - 51.1 °F 84% 30.07 in 10.0 mi Calm Calm - N/A   Clear
3:55 AM 57.0 °F - 52.0 °F 83% 30.07 in 10.0 mi ENE 4.6 mph - N/A   Clear
4:55 AM 54.0 °F - 50.0 °F 86% 30.07 in 10.0 mi NNE 3.5 mph - N/A   Clear
5:55 AM 55.0 °F - 48.9 °F 80% 30.07 in 10.0 mi NE 3.5 mph - N/A   Clear
6:55 AM 52.0 °F - 48.0 °F 86% 30.07 in 10.0 mi Calm Calm - N/A   Clear
7:55 AM 57.9 °F - 52.0 °F 81% 30.08 in 10.0 mi Calm Calm - N/A   Clear
8:55 AM 64.9 °F - 52.0 °F 63% 30.08 in 10.0 mi Calm Calm - N/A   Clear
9:55 AM 73.0 °F - 55.9 °F 55% 30.06 in 10.0 mi Calm Calm - N/A   Clear
10:55 AM 82.9 °F - 52.0 °F 34% 30.05 in 10.0 mi SSW 4.6 mph - N/A   Clear
11:55 AM 82.0 °F 81.6 °F 55.9 °F 41% 30.03 in 10.0 mi SW 6.9 mph - N/A   Clear
12:55 PM 84.0 °F 83.0 °F 55.9 °F 38% 30.01 in 10.0 mi WSW 10.4 mph - N/A   Clear
1:55 PM 81.0 °F 80.7 °F 55.0 °F 41% 30.00 in 10.0 mi WSW 11.5 mph - N/A   Clear
2:55 PM 79.0 °F - 54.0 °F 42% 29.99 in 10.0 mi SW 10.4 mph - N/A   Clear
3:55 PM 77.0 °F - 54.0 °F 45% 29.98 in 10.0 mi SW 10.4 mph - N/A   Clear
4:55 PM 75.0 °F - 57.0 °F 53% 29.97 in 10.0 mi SW 5.8 mph - N/A   Clear
5:55 PM 72.0 °F - 57.0 °F 59% 29.96 in 10.0 mi SSW 5.8 mph - N/A   Clear
6:55 PM 68.0 °F - 57.9 °F 70% 29.97 in 10.0 mi West 3.5 mph - N/A   Clear
7:55 PM 66.0 °F - 59.0 °F 78% 29.98 in 10.0 mi Calm Calm - N/A   Clear
8:55 PM 64.0 °F - 57.9 °F 80% 29.98 in 10.0 mi Calm Calm - N/A   Clear
9:55 PM 64.0 °F - 55.9 °F 75% 29.98 in 10.0 mi West 4.6 mph - N/A   Clear
10:55 PM 61.0 °F - 55.0 °F 81% 29.99 in 10.0 mi Calm Calm - N/A   Clear
11:55 PM 62.1 °F - 54.0 °F 75% 29.98 in 10.0 mi Calm Calm - N/A   Clear